FW2032 Weather Reports


time (UTC)temp
C
wind
direction
speed
KPH
gust
KPH
rain 1hr
cm
rain 24hr
cm
rain mn
cm
humidity
%
barometer
mb
20260502164030 13 300 8.0 20.9 0.00 0.00 0.00 41 1023.1
20260502163531 13 13 12.9 20.9 0.00 0.00 0.00 43 1023.2
20260502163044 13 243 4.8 16.1 0.00 0.00 0.00 44 1023.2
20260502162531 13 12 4.8 19.3 0.00 0.00 0.00 42 1023.2
20260502162034 13 336 8.0 19.3 0.00 0.00 0.00 45 1023.3
20260502161556 13 360 8.0 19.3 0.00 0.00 0.00 42 1023.2
20260502161038 13 360 8.0 19.3 0.00 0.00 0.00 46 1023.2
20260502160532 13 5 8.0 17.7 0.00 0.00 0.00 47 1023.1
20260502152029 12 342 4.8 14.5 0.00 0.00 0.00 47 1023.2
20260502151550 12 326 1.6 12.9 0.00 0.00 0.00 53 1023.2
20260502151028 12 325 4.8 12.9 0.00 0.00 0.00 49 1023.2
20260502150529 12 24 6.4 12.9 0.00 0.00 0.00 54 1023.1
20260502130528 4 314 3.2 8.0 0.00 0.00 0.00 77 1022.6
20260502123533 2 0 0.0 6.4 0.00 0.00 0.00 82 1022.5
20260502123111 2 318 1.6 6.4 0.00 0.00 0.00 82 1022.3
20260502122530 2 360 1.6 6.4 0.00 0.00 0.00 82 1022.2
20260502122034 2 0 0.0 0.0 0.00 0.00 0.00 81 1022.1
20260502121544 2 0 0.0 0.0 0.00 0.00 0.00 81 1022.1
20260502121031 2 0 0.0 0.0 0.00 0.00 0.00 82 1022.0
20260502120532 2 0 0.0 0.0 0.00 0.00 0.00 82 1021.9
20260502115530 1 0 0.0 1.6 0.00 0.00 0.00 83 1021.8
20260502115030 1 0 0.0 1.6 0.00 0.00 0.00 83 1021.8
20260502114545 1 0 0.0 1.6 0.00 0.00 0.00 83 1021.6
20260502114030 1 0 0.0 1.6 0.00 0.00 0.00 82 1021.5
20260502113530 1 0 0.0 0.0 0.00 0.00 0.00 81 1021.5
20260502113046 1 0 0.0 0.0 0.00 0.00 0.00 81 1021.5
20260502112529 1 0 0.0 0.0 0.00 0.00 0.00 81 1021.4
20260502112029 1 0 0.0 0.0 0.00 0.00 0.00 80 1021.5
20260502111545 2 0 0.0 1.6 0.00 0.00 0.00 79 1021.4
20260502111030 2 0 0.0 3.2 0.00 0.00 0.00 78 1021.3
20260502110530 2 0 0.0 4.8 0.00 0.00 0.00 78 1021.3
20260502110048 2 313 0.0 4.8 0.00 0.00 0.00 78 1021.3
20260502105531 2 313 0.0 4.8 0.00 0.00 0.00 78 1021.3
20260502105032 2 313 1.6 4.8 0.00 0.00 0.00 78 1021.2
20260502104541 2 313 0.0 4.8 0.00 0.00 0.00 78 1021.1
20260502104030 2 0 0.0 4.8 0.00 0.00 0.00 78 1021.1
20260502103530 2 0 0.0 4.8 0.00 0.00 0.00 78 1021.0
20260502103039 2 0 0.0 3.2 0.00 0.00 0.00 78 1021.0
20260502102530 2 0 0.0 4.8 0.00 0.00 0.00 79 1021.0
20260502102037 2 360 0.0 4.8 0.00 0.00 0.00 79 1020.9
20260502101549 2 0 1.6 4.8 0.00 0.00 0.00 79 1020.9
20260502101030 2 360 1.6 4.8 0.00 0.00 0.00 79 1020.8
20260502100530 2 360 1.6 4.8 0.00 0.00 0.00 78 1020.9
20260502091028 4 0 1.6 6.4 0.00 0.00 0.00 72 1020.8
20260502090528 4 360 1.6 6.4 0.00 0.00 0.00 72 1020.8
20260502071029 6 360 4.8 8.0 0.00 0.00 0.00 60 1020.5
20260502070532 6 360 3.2 9.7 0.00 0.00 0.00 61 1020.6
20260502070044 6 360 3.2 9.7 0.00 0.00 0.00 61 1020.6
20260502065528 6 360 3.2 6.4 0.00 0.00 0.00 62 1020.6
20260502065030 6 360 1.6 6.4 0.00 0.00 0.00 63 1020.7
20260502064538 6 360 3.2 6.4 0.00 0.00 0.00 64 1020.7
20260502064031 6 360 1.6 6.4 0.00 0.00 0.00 64 1020.6
20260502063532 6 360 3.2 6.4 0.00 0.00 0.00 66 1020.7
20260502063053 6 360 3.2 6.4 0.00 0.00 0.00 67 1020.8
20260502062529 6 360 3.2 6.4 0.00 0.00 0.00 67 1020.8
20260502062029 6 360 1.6 4.8 0.00 0.00 0.00 68 1020.8
20260502061539 6 360 3.2 4.8 0.00 0.00 0.00 67 1020.8
20260502061028 6 360 1.6 4.8 0.00 0.00 0.00 65 1020.8
20260502060530 6 360 1.6 4.8 0.00 0.00 0.00 64 1020.8
20260502060040 6 360 1.6 6.4 0.00 0.00 0.00 63 1020.6
20260502055529 6 360 3.2 6.4 0.00 0.00 0.00 63 1020.6
20260502055032 7 360 1.6 6.4 0.00 0.00 0.00 63 1020.6
20260502054542 7 360 3.2 6.4 0.00 0.00 0.00 62 1020.6
20260502054030 7 360 3.2 6.4 0.00 0.00 0.00 61 1020.7
20260502053530 7 360 3.2 4.8 0.00 0.00 0.00 60 1020.6
20260502053043 7 360 3.2 4.8 0.00 0.00 0.00 60 1020.7
20260502052529 7 360 3.2 4.8 0.00 0.00 0.00 59 1020.6
20260502052029 7 360 3.2 4.8 0.00 0.00 0.00 60 1020.6
20260502051544 7 360 3.2 4.8 0.00 0.00 0.00 59 1020.6
20260502051029 7 360 3.2 4.8 0.00 0.00 0.00 59 1020.6
20260502050529 7 360 3.2 6.4 0.00 0.00 0.00 59 1020.6
20260502050039 7 360 3.2 6.4 0.00 0.00 0.00 59 1020.6
20260502045529 7 360 3.2 6.4 0.00 0.00 0.00 58 1020.6
20260502045031 8 360 3.2 6.4 0.00 0.00 0.00 58 1020.7
20260502044544 8 360 3.2 6.4 0.00 0.00 0.00 58 1020.7
20260502044033 8 360 3.2 4.8 0.00 0.00 0.00 57 1020.7
20260502043528 8 360 3.2 4.8 0.00 0.00 0.00 57 1020.7
20260502043046 8 360 3.2 6.4 0.00 0.00 0.00 57 1020.6
20260502042528 8 360 3.2 6.4 0.00 0.00 0.00 56 1020.7
20260502042032 8 360 3.2 6.4 0.00 0.00 0.00 56 1020.6
20260502041547 8 360 3.2 6.4 0.00 0.00 0.00 56 1020.5
20260502041028 8 360 3.2 8.0 0.00 0.00 0.00 56 1020.5
20260502040529 8 360 3.2 8.0 0.00 0.00 0.00 56 1020.5
20260502040040 8 360 3.2 9.7 0.00 0.00 0.00 56 1020.5
20260502035529 8 360 3.2 9.7 0.00 0.00 0.00 56 1020.5
20260502035029 9 360 4.8 8.0 0.00 0.00 0.00 55 1020.4
20260502034540 9 360 4.8 9.7 0.00 0.00 0.00 55 1020.3
20260502034029 9 360 4.8 9.7 0.00 0.00 0.00 55 1020.3
20260502033535 9 360 4.8 9.7 0.00 0.00 0.00 54 1020.3
20260502033045 10 360 3.2 8.0 0.00 0.00 0.00 53 1020.1
20260502032529 10 360 3.2 6.4 0.00 0.00 0.00 53 1020.1
20260502032029 10 360 3.2 6.4 0.00 0.00 0.00 53 1019.9
20260502031551 10 360 3.2 6.4 0.00 0.00 0.00 52 1019.9
20260502031029 10 360 3.2 8.0 0.00 0.00 0.00 52 1019.9
20260502030535 10 360 3.2 9.7 0.00 0.00 0.00 52 1019.9
20260502030042 10 360 4.8 9.7 0.00 0.00 0.00 52 1019.9
20260502025529 10 360 4.8 9.7 0.00 0.00 0.00 51 1019.8
20260502025031 10 360 4.8 8.0 0.00 0.00 0.00 51 1019.7
20260502024600 10 360 4.8 8.0 0.00 0.00 0.00 51 1019.6
20260502024028 11 360 4.8 9.7 0.00 0.00 0.00 51 1019.6
20260502023529 11 360 4.8 16.1 0.00 0.00 0.00 50 1019.5
20260502023045 11 360 8.0 16.1 0.00 0.00 0.00 49 1019.3
20260502022531 11 360 6.4 12.9 0.00 0.00 0.00 49 1019.2
20260502022032 11 360 6.4 14.5 0.00 0.00 0.00 50 1019.1
20260502021540 11 360 6.4 14.5 0.00 0.00 0.00 50 1019.0
20260502021029 12 360 8.0 14.5 0.00 0.00 0.00 49 1018.8
20260502020529 12 360 8.0 14.5 0.00 0.00 0.00 49 1018.8
20260502020043 12 9 9.7 14.5 0.00 0.00 0.00 48 1018.8
20260502015530 12 360 8.0 16.1 0.00 0.00 0.00 49 1018.7
20260502015028 12 360 9.7 16.1 0.00 0.00 0.00 50 1018.6
20260502014537 12 9 8.0 16.1 0.00 0.00 0.00 50 1018.5
20260502014028 12 360 6.4 12.9 0.00 0.00 0.00 50 1018.4
20260502013529 12 13 4.8 12.9 0.00 0.00 0.00 50 1018.3
20260502013042 13 349 6.4 16.1 0.00 0.00 0.00 49 1018.3
20260502012528 13 13 6.4 16.1 0.00 0.00 0.00 49 1018.3
20260502012028 13 355 8.0 16.1 0.00 0.00 0.00 48 1018.2
20260502011542 13 360 6.4 17.7 0.00 0.00 0.00 48 1018.1
20260502011028 13 360 6.4 17.7 0.00 0.00 0.00 48 1018.0
20260502010528 13 360 8.0 16.1 0.00 0.00 0.00 48 1018.0
20260502010050 14 355 8.0 17.7 0.00 0.00 0.00 47 1018.0
20260502005529 14 355 6.4 17.7 0.00 0.00 0.00 46 1017.9
20260502005029 14 340 9.7 17.7 0.00 0.00 0.00 45 1017.8
20260502004553 15 339 8.0 16.1 0.00 0.00 0.00 44 1017.8
20260502004029 15 349 6.4 17.7 0.00 0.00 0.00 45 1017.7
20260502003528 15 343 11.3 17.7 0.00 0.00 0.00 45 1017.7
20260502003038 15 5 6.4 19.3 0.00 0.00 0.00 45 1017.6
20260502002528 15 360 9.7 24.1 0.00 0.00 0.00 44 1017.6
20260502002029 15 331 11.3 24.1 0.00 0.00 0.00 44 1017.5
20260502001537 15 5 16.1 24.1 0.00 0.00 0.00 43 1017.6
20260502001030 16 16 9.7 20.9 0.00 0.00 0.00 43 1017.5
20260502000529 16 9 12.9 20.9 0.00 0.00 0.00 43 1017.5
20260502000044 16 32 12.9 20.9 0.00 0.00 0.00 43 1017.5
20260501235528 16 5 12.9 20.9 0.00 0.00 0.00 43 1017.5
20260501235029 16 355 11.3 20.9 0.00 0.00 0.00 43 1017.4
20260501234541 16 355 9.7 22.5 0.00 0.00 0.00 44 1017.4
20260501234029 16 5 14.5 22.5 0.00 0.00 0.00 41 1017.4
20260501233529 16 5 11.3 22.5 0.00 0.00 0.00 42 1017.4
20260501233044 16 327 11.3 22.5 0.00 0.00 0.00 42 1017.3
20260501232529 16 355 9.7 29.0 0.00 0.00 0.00 40 1017.3
20260501232028 16 329 11.3 29.0 0.00 0.00 0.00 39 1017.3
20260501231544 17 344 11.3 29.0 0.00 0.00 0.00 38 1017.3
20260501231028 17 323 14.5 25.7 0.00 0.00 0.00 38 1017.2
20260501230529 17 360 11.3 27.4 0.00 0.00 0.00 41 1017.2
20260501230038 17 5 14.5 27.4 0.00 0.00 0.00 41 1017.2
20260501225529 17 24 14.5 25.7 0.00 0.00 0.00 40 1017.2
20260501225028 16 355 14.5 24.1 0.00 0.00 0.00 40 1017.3
20260501224548 17 355 14.5 20.9 0.00 0.00 0.00 40 1017.2
20260501224029 17 349 12.9 25.7 0.00 0.00 0.00 40 1017.1
20260501223532 16 27 11.3 25.7 0.00 0.00 0.00 41 1017.3
20260501223042 16 316 9.7 24.1 0.00 0.00 0.00 42 1017.1
20260501222529 16 336 9.7 24.1 0.00 0.00 0.00 41 1017.1
20260501222029 16 334 6.4 19.3 0.00 0.00 0.00 42 1017.2
20260501221539 16 338 11.3 25.7 0.00 0.00 0.00 39 1017.1
20260501221029 17 329 12.9 25.7 0.00 0.00 0.00 40 1017.2
20260501220528 16 300 11.3 25.7 0.00 0.00 0.00 39 1017.2
20260501220052 17 360 14.5 27.4 0.00 0.00 0.00 38 1017.2
20260501215529 18 24 12.9 30.6 0.00 0.00 0.00 39 1017.3
20260501215029 17 360 16.1 30.6 0.00 0.00 0.00 38 1017.3
20260501214545 17 355 14.5 29.0 0.00 0.00 0.00 38 1017.1
20260501214028 17 355 19.3 29.0 0.00 0.00 0.00 36 1017.3
20260501213530 17 340 14.5 24.1 0.00 0.00 0.00 37 1017.4
20260501213050 17 360 14.5 24.1 0.00 0.00 0.00 38 1017.6
20260501212529 17 317 11.3 22.5 0.00 0.00 0.00 42 1017.5
20260501212029 17 323 6.4 24.1 0.00 0.00 0.00 41 1017.6
20260501211548 17 5 14.5 24.1 0.00 0.00 0.00 40 1017.8
20260501211028 17 342 11.3 24.1 0.00 0.00 0.00 42 1017.8
20260501210528 16 342 4.8 12.9 0.00 0.00 0.00 40 1017.9
20260501210046 17 315 4.8 12.9 0.00 0.00 0.00 39 1017.9
20260501205534 17 274 6.4 24.1 0.00 0.00 0.00 43 1018.0
20260501205029 17 254 9.7 24.1 0.00 0.00 0.00 40 1018.0
20260501204542 17 275 11.3 29.0 0.00 0.00 0.00 45 1018.1
20260501204029 17 360 6.4 29.0 0.00 0.00 0.00 42 1018.3
20260501203529 17 344 16.1 29.0 0.00 0.00 0.00 45 1018.3
20260501203038 17 279 11.3 25.7 0.00 0.00 0.00 46 1018.3
20260501202533 16 272 14.5 27.4 0.00 0.00 0.00 45 1018.3
20260501202028 17 360 11.3 27.4 0.00 0.00 0.00 47 1018.4
20260501201546 16 261 11.3 19.3 0.00 0.00 0.00 48 1018.4
20260501201029 16 272 9.7 27.4 0.00 0.00 0.00 43 1018.5
20260501200529 16 310 8.0 27.4 0.00 0.00 0.00 41 1018.6
20260501200044 16 5 11.3 27.4 0.00 0.00 0.00 45 1018.6
20260501195529 16 0 6.4 27.4 0.00 0.00 0.00 44 1018.7
20260501195029 16 284 12.9 27.4 0.00 0.00 0.00 46 1018.7
20260501194541 17 284 12.9 22.5 0.00 0.00 0.00 43 1018.6
20260501194028 17 348 12.9 22.5 0.00 0.00 0.00 45 1018.7
20260501193528 17 360 11.3 22.5 0.00 0.00 0.00 44 1018.8
20260501193039 16 342 6.4 22.5 0.00 0.00 0.00 46 1018.7
20260501192529 16 273 12.9 24.1 0.00 0.00 0.00 47 1019.0
20260501192029 16 260 11.3 29.0 0.00 0.00 0.00 45 1018.9
20260501191537 16 341 16.1 29.0 0.00 0.00 0.00 41 1018.9
20260501191030 16 292 17.7 27.4 0.00 0.00 0.00 41 1018.8
20260501190535 16 350 11.3 30.6 0.00 0.00 0.00 43 1018.9
20260501190036 16 277 16.1 30.6 0.00 0.00 0.00 42 1018.9
20260501185529 17 340 20.9 30.6 0.00 0.00 0.00 41 1018.9
20260501185029 17 279 9.7 22.5 0.00 0.00 0.00 44 1018.8
20260501184558 17 271 9.7 29.0 0.00 0.00 0.00 47 1018.8
20260501184029 17 331 14.5 29.0 0.00 0.00 0.00 41 1018.9
20260501183529 17 284 14.5 29.0 0.00 0.00 0.00 41 1018.7
20260501183043 17 240 9.7 25.7 0.00 0.00 0.00 42 1018.8
20260501182530 17 325 6.4 25.7 0.00 0.00 0.00 42 1018.8
20260501182032 17 355 11.3 25.7 0.00 0.00 0.00 40 1018.9
20260501181543 17 333 14.5 25.7 0.00 0.00 0.00 44 1018.9
20260501181028 16 315 14.5 25.7 0.00 0.00 0.00 44 1018.9
20260501180528 16 346 16.1 27.4 0.00 0.00 0.00 48 1018.8
20260501180052 16 346 16.1 30.6 0.00 0.00 0.00 41 1018.8
20260501175530 16 355 17.7 30.6 0.00 0.00 0.00 40 1018.9
20260501175029 16 315 17.7 27.4 0.00 0.00 0.00 40 1019.0
20260501174548 17 5 14.5 25.7 0.00 0.00 0.00 42 1019.1
20260501174030 17 360 6.4 30.6 0.00 0.00 0.00 41 1019.2
20260501173529 16 274 9.7 30.6 0.00 0.00 0.00 44 1019.2